Regional Weather Roundup
Issued by NWS

Home | Current Version | Previous Version | Text Only | Print | Product List | Glossary On
Versions: 1 2 3 4 5 6 7 8 9 10 11 12 13 14 15 16 17 18 19 20 21 22 23 24 25 26 27 28 29 30 31 32 33 34 35 36 37 38 39 40 41 42 43 44 45 46 47 48 49 50
000
ASUS43 KTOP 260808
RWRKS

WEATHER ROUNDUP FOR KANSAS
NATIONAL WEATHER SERVICE GOODLAND KS
300 AM CDT FRI MAY 26 2017

NOTE:  "FAIR" INDICATES FEW OR NO CLOUDS BELOW 12,000 FEET WITH NO
SIGNIFICANT WEATHER AND/OR OBSTRUCTIONS TO VISIBILITY.

KSZ001>006-013>018-027>032-041>047-260900-
NORTHWEST KANSAS

CITY           SKY/WX    TMP DP  RH WIND       PRES   REMARKS
GOODLAND       CLOUDY    56  51  84 NW10      29.79F
HAYS           CLEAR     59  56  89 NW17G23   29.68R
HILL CITY      PTCLDY    60  54  80 NW6       29.69F
RUSSELL        CLEAR     58  56  93 N3        29.62R
$$

KSZ061>065-074>080-084>089-260900-
SOUTHWEST KANSAS

CITY           SKY/WX    TMP DP  RH WIND       PRES   REMARKS
DODGE CITY     CLEAR     59  55  87 N6        29.66R
ELKHART          N/A     54  43  67 NW9         N/A
GARDEN CITY    CLEAR     56  52  86 N14       29.73R
GREAT BEND     CLEAR     63  59  87 NE6       29.62R
LIBERAL        CLEAR     58  54  86 N10       29.71R
PRATT          CLEAR     60  56  86 N12       29.61R
$$

KSZ066>073-081>083-090>101-260900-
SOUTHEAST KANSAS

CITY           SKY/WX    TMP DP  RH WIND       PRES   REMARKS
CHANUTE        PTCLDY    67  59  75 SE9       29.63R
COFFEYVILLE    MOCLDY    68  63  84 N12G17    29.62R
HUTCHINSON     PTCLDY    66  60  81 NE8       29.58R
MEDICINE LODGE   N/A     66  60  81 E9        29.54F
NEWTON         PTCLDY    66  60  81 E17G23    29.56F
PARSONS        CLOUDY    69  60  73 N10       29.66R
WICHITA INTL   PTCLDY    68  61  78 NE8       29.57F
WICHITA JABRA  CLEAR     64  60  87 N9        29.57F
WICHITA MCCONL PTCLDY    68  60  74 E10       29.57F
WINFIELD       CLEAR     68  61  78 SE9       29.57F
$$

KSZ007>012-019>026-033>040-048>060-102>105-260900-
NORTHEAST KANSAS

CITY           SKY/WX    TMP DP  RH WIND       PRES   REMARKS
CONCORDIA      CLOUDY    60  60 100 CALM      29.60R
EMPORIA        CLOUDY    64  62  93 SE12      29.62F
LAWRENCE       LGT RAIN  64  61  90 W8G22     29.71R
MANHATTAN      CLOUDY    65  62  90 NE6       29.55F
MARYSVILLE     CLOUDY    61  61 100 W3        29.59R
OLATHE IND     MOCLDY    65  58  78 S5        29.70R
OLATHE EXE     CLOUDY    64  59  83 S5        29.69R
SALINA         CLOUDY    68  62  81 E6        29.58R
TOPEKA BILLARD LGT RAIN  64  62  93 E23       29.53F
TOPEKA FORBES  LGT RAIN  66  62  87 E18       29.54F
$$




USA.gov is the U.S. government's official web portal to all federal, state and local government web resources and services.